{"data":{"norad_id":53826,"intl_designator":"2022-114J","name":"STARLINK-4756","alt_names":[],"object_type":"PAYLOAD","status":"ACTIVE","operator":null,"country":"US","launch_date":"2022-09-19","launch_site_code":"AFETR","launch_vehicle":null,"mission":null,"orbit_class":"UNKNOWN","rcs_meters":null,"size_class":null,"mass_kg":null,"dimensions":null,"purposes":["comms"],"wikipedia_slug":null,"has_3d_model":false,"image_url":null,"decayed_at":null,"tle_current":{"epoch":"2026-09-20T09:14:51.320544Z","epoch_age_seconds":94234,"freshness":"FRESH","line1":"1 53826U 22114J   26263.38531621 -.00001242  00000+0 -25668-4 0  9993","line2":"2 53826  53.1606 140.3309 0000409 210.2657 149.8322 15.34386557222353","mean_motion":15.34386557,"eccentricity":4.09e-5,"inclination_deg":53.1606,"raan_deg":140.3309,"arg_perigee_deg":210.2657,"mean_anomaly_deg":149.8322,"bstar":-2.5668e-5,"rev_number":22235,"period_min":93.848580296184,"perigee_km":462.46340392779,"apogee_km":463.02298792781,"semimajor_km":6840.8801959278,"source":"CELESTRAK","updated_at":"2026-09-21T09:00:32.998844Z"}}}